Weather History for Orlando International, FL

Change the Weather History Date:

Sunday, March 30, 2014

  Actual Average Record
Temperature  
Mean Temperature 66 °F 69 °F  
Max Temperature 75 °F 80 °F 97 °F (1907)
Min Temperature 57 °F 58 °F 38 °F (1937)
Degree Days  
Heating Degree Days 0 1  
Month to date heating degree days 41 58  
Since 1 July heating degree days 405 557  
Cooling Degree Days 1 5  
Month to date cooling degree days 107 112  
Year to date cooling degree days 257 216  
Growing Degree Days 16 (Base 50)    
Moisture  
Dew Point 46 °F    
Average Humidity 57    
Maximum Humidity 93    
Minimum Humidity 21    
Precipitation  
Precipitation 0.00 in 0.13 in 3.06 in (1926)
Month to date precipitation 4.52 3.64  
Year to date precipitation 9.56 8.37  
Sea Level Pressure  
Sea Level Pressure 30.02 in    
Wind  
Wind Speed 11 mph (WNW)    
Max Wind Speed 21 mph    
Max Gust Speed 26 mph    
Visibility 10 miles    
Events      
T = Trace of Precipitation, MM = Missing Value Source: NWS Daily Summary

Daily Weather History Graph

Daily Weather History Graph

Search for Another Location

Airport:

Trip Planner

Search our weather history database for the weather conditions in past years. The results will help you decide how hot, cold, wet, or windy it might be!

Date:

Astronomy

Mar. 30, 2014 Rise Set
Actual Time 7:17 AM EDT 7:42 PM EDT
Civil Twilight 6:53 AM EDT 8:05 PM EDT
Nautical Twilight 6:26 AM EDT 8:33 PM EDT
Astronomical Twilight 5:58 AM EDT 9:01 PM EDT
Moon 7:02 AM EDT (3/30) 7:50 PM EDT (3/30)
Length of Visible Light 13h 11m
Length of Day
12h 24m
Waning Crescent, 0% of the Moon is Illuminated
Mar 30
Waning Crescent
Mar 30
New
Apr 7
First Quarter
Apr 15
Full
Apr 22
Last Quarter

Hourly Weather History & Observations

Time (EDT) Temp. Dew Point Humidity Pressure Visibility Wind Dir Wind Speed Gust Speed Precip Events Conditions
12:53 AM 69.1 °F 64.0 °F 84% 29.94 in 10.0 mi West 8.1 mph - N/A   Partly Cloudy
1:53 AM 66.0 °F 60.1 °F 81% 29.94 in 10.0 mi WNW 9.2 mph - N/A   Scattered Clouds
2:53 AM 64.0 °F 60.1 °F 87% 29.93 in 10.0 mi West 6.9 mph - N/A   Partly Cloudy
3:53 AM 63.0 °F 60.1 °F 90% 29.93 in 10.0 mi West 8.1 mph - N/A   Mostly Cloudy
4:53 AM 63.0 °F 57.9 °F 84% 29.94 in 10.0 mi NW 10.4 mph - N/A   Partly Cloudy
5:53 AM 61.0 °F 52.0 °F 72% 29.96 in 10.0 mi NW 17.3 mph 23.0 mph N/A   Partly Cloudy
6:53 AM 59.0 °F 48.0 °F 67% 29.99 in 10.0 mi NW 16.1 mph - N/A   Partly Cloudy
7:53 AM 57.9 °F 46.0 °F 65% 30.03 in 10.0 mi NW 12.7 mph - N/A   Partly Cloudy
8:53 AM 59.0 °F 46.9 °F 64% 30.05 in 10.0 mi NW 15.0 mph - N/A   Partly Cloudy
9:53 AM 61.0 °F 46.9 °F 60% 30.07 in 10.0 mi NW 13.8 mph - N/A   Partly Cloudy
10:53 AM 63.0 °F 43.0 °F 48% 30.08 in 10.0 mi NW 15.0 mph - N/A   Clear
11:53 AM 64.9 °F 44.1 °F 47% 30.08 in 10.0 mi WNW 9.2 mph 19.6 mph N/A   Partly Cloudy
12:53 PM 68.0 °F 42.1 °F 39% 30.06 in 10.0 mi WNW 15.0 mph 20.7 mph N/A   Clear
1:53 PM 70.0 °F 37.0 °F 30% 30.05 in 10.0 mi NW 12.7 mph - N/A   Partly Cloudy
2:53 PM 73.0 °F 35.1 °F 25% 30.02 in 10.0 mi NW 16.1 mph - N/A   Partly Cloudy
3:53 PM 73.9 °F 34.0 °F 23% 30.01 in 10.0 mi WNW 13.8 mph - N/A   Partly Cloudy
4:53 PM 75.0 °F 32.0 °F 21% 29.99 in 10.0 mi WNW 15.0 mph 20.7 mph N/A   Partly Cloudy
5:53 PM 75.0 °F 35.1 °F 23% 29.99 in 10.0 mi NW 12.7 mph - N/A   Scattered Clouds
6:53 PM 73.0 °F 39.0 °F 29% 30.00 in 10.0 mi NW 11.5 mph - N/A   Mostly Cloudy
7:53 PM 69.1 °F 39.0 °F 33% 30.03 in 10.0 mi WNW 9.2 mph - N/A   Mostly Cloudy
8:53 PM 66.9 °F 43.0 °F 42% 30.05 in 10.0 mi WNW 9.2 mph - N/A   Mostly Cloudy
9:53 PM 64.0 °F 50.0 °F 60% 30.06 in 10.0 mi NW 10.4 mph - N/A   Mostly Cloudy
10:53 PM 60.1 °F 48.9 °F 67% 30.09 in 10.0 mi WNW 6.9 mph - N/A   Mostly Cloudy
11:53 PM 59.0 °F 50.0 °F 72% 30.10 in 10.0 mi WNW 4.6 mph - N/A   Mostly Cloudy